Flag for Germany Weather past 2 weeks in Leutkirch im Allgäu, Baden-Württemberg, Germany

Now
43 °F

Drizzle. Overcast.


Feels Like: 38 °F
Forecast: 39 / 49 °F
Wind: 8 mph from Northwest

Location: Kempten

Current Time: Mar 30, 2015 at 3:33:57 PM

Latest Report: Mar 30, 2015 at 3:00 PM


Visibility: 16 mi

Pressure: 29.80 "Hg

Humidity: 82%

Dew point: 38 °F

Location of Leutkirch im AllgäuLocation

Historic Weather in Leutkirch im Allgäu — Graph

°F

Leutkirch im Allgäu temperature yesterday

Maximum temperature yesterday: 52 °F (at 1:00 PM)
Minimum temperature yesterday: 43 °F (at 12:00 AM)
Average temperature yesterday: 46 °F

Past Weeks' High & Low Weather Summary

 TemperatureHumidityPressure
High63 °F (Mar 17, 2:00 PM)98% (Mar 22, 2:00 AM)30.31 "Hg (Mar 22, 2:00 AM)
Low28 °F (Mar 20, 7:00 AM)27% (Mar 17, 2:00 PM)29.47 "Hg (Mar 25, 1:00 PM)
Average43 °F73%30.03 "Hg
* Reported Mar 15 1:00 PM — Mar 30 2:00 PM, Leutkirch im Allgäu, Weather by CustomWeather, © 2015

Note: Actual official high and low records may vary slightly from our data, if they occured in-between our weather recording intervals... More about our weather records

Advertising

Leutkirch im Allgäu weather history for previous 24 hours

 ConditionsComfort  
Time TempWeatherWind HumidityBarometerVisibility
2:00 PM
Mon, Mar 30
43 °FRain. Overcast.6 mph92%29.76 "Hg2 mi
1:00 PM44 °FLight rain. Overcast.8 mph89%29.72 "Hg2 mi
12:00 PM46 °FOvercast.8 mph82%29.69 "Hg31 mi
10:00 AM44 °FRain. Fog.8 mph86%29.67 "Hg2 mi
9:00 AM45 °FLight rain. Overcast.7 mph88%29.62 "Hg3 mi
8:00 AM44 °FLight freezing rain. Fog.8 mph88%29.62 "Hg3 mi
7:00 AM45 °FLight rain. Overcast.8 mph86%29.61 "Hg3 mi
6:00 AM44 °FLight rain. Overcast.8 mph86%29.61 "Hg6 mi
5:00 AM45 °FLight rain. Overcast.9 mph84%29.61 "Hg7 mi
4:00 AM45 °FLight rain. Overcast.7 mph85%29.63 "Hg3 mi
3:00 AM45 °FLight rain. Overcast.9 mph84%29.64 "Hg6 mi
2:00 AM45 °FLight rain. Overcast.8 mph86%29.67 "Hg5 mi
1:00 AM45 °FLight rain. Overcast.7 mph86%29.69 "Hg3 mi
12:00 AM45 °FLight rain. Overcast.8 mph86%29.70 "Hg3 mi
10:00 PM
Sun, Mar 29
46 °FLight rain. Overcast.8 mph87%29.73 "Hg3 mi
9:00 PM46 °FLight freezing rain. Overcast.6 mph87%29.74 "Hg7 mi
8:00 PM47 °FLight rain. Overcast.7 mph82%29.76 "Hg11 mi
7:00 PM46 °FLight rain. Overcast.6 mph87%29.79 "Hg15 mi
6:00 PM46 °FLight rain. Overcast.6 mph89%29.82 "Hg7 mi
4:00 PM46 °FLight rain. Overcast.7 mph82%29.84 "Hg4 mi
3:00 PM47 °FLight rain. Overcast.7 mph83%29.84 "Hg4 mi
Weather by CustomWeather, © 2015

See weather overviewHow to use our weather pages